Location: Bremen
(53.0793°N, 8.8017°E)
Time: 23:33:07
(UTC+02:00)

Vanguard 2 Rocket - Pass Details

Date: 14 April 2024
Orbit: 556 x 3304 km, 32.9° (Epoch: 20 May)

Event Time Altitude Azimuth Distance (km) Brightness Sun altitude
Rises 21:12:16 0° 170° (S) 6,767 11.0 -7.5°
Reaches altitude 10° 21:24:40 10° 136° (SE) 6,214 10.5 -9.2°
Maximum altitude 21:26:36 10° 130° (SE) 6,222 10.5 -9.4°
Enters shadow 21:27:48 10° 127° (SE) 6,241 10.5 -9.6°
Drops below altitude 10° 21:28:32 10° 125° (SE) 6,257 - -9.7°
Sets 21:41:15 0° 92° (E) 7,072 - -11.3°
